[[{"header":{"parameterUnit":"m.s-1","parameterCategory":1,"la1":30.2991,"la2":30.254,"lo1":-89.0895,"lo2":-89.0444,"dy":0.0017,"dx":0.0017,"nx":28,"ny":28,"refTime":"2023-10-19T09:00:00:Z","depth":0,"parameterNumber":2,"parameterNumberName":"U-component_of_WINDS"},"data":[0,0,0,0,0,0,0,0,0,0,0,0,0,0,0,0,0,0,0,0,0,0,0,0,0,0,0,0,0,0,0,0,0,0,0,0,0,0,0,0,0,0,0,0,0,0,0,0,0,0,0,0,0,0,0,0,0,0,-1.4269,-1.4269,0,-1.434,-1.4341,-1.4342,-1.4382,-1.4382,-1.4382,-1.4383,-1.4457,-1.4459,-1.4461,0,0,0,0,0,0,0,0,0,0,0,0,0,-1.4167,-1.4168,-1.4269,-1.4269,-1.427,-1.434,-1.4341,-1.4342,-1.4382,-1.4382,-1.4382,-1.4383,-1.4457,-1.4459,-1.4461,0,0,0,0,0,0,0,0,0,0,0,0,0,-1.4222,-1.4169,-1.4268,-1.4299,-1.4302,-1.434,-1.4341,-1.4343,-1.4382,-1.4382,-1.4382,-1.4383,-1.4456,-1.4459,-1.4461,-1.4475,0,0,-1.447,-1.4471,0,0,0,0,0,0,0,0,-1.4219,-1.4226,-1.4293,-1.4297,-1.4301,-1.4353,-1.4333,-1.4387,-1.4382,-1.4352,-1.4383,-1.4383,-1.4422,-1.4428,-1.4441,-1.4479,-1.4482,-1.447,-1.4472,-1.4473,-1.4474,0,0,0,0,0,0,0,-1.4215,-1.4223,-1.4297,-1.4294,-1.4299,-1.4309,-1.4317,-1.4343,-1.4385,-1.4354,-1.4357,-1.4365,-1.4424,-1.4438,-1.4443,-1.4483,-1.447,-1.4473,-1.4474,-1.4475,-1.4536,-1.4535,0,0,0,0,0,0,-1.4206,-1.4219,-1.4295,-1.4299,-1.4259,-1.4311,-1.432,-1.4336,-1.4385,-1.4393,-1.4365,-1.4367,-1.4433,-1.444,-1.4446,-1.4465,-1.4473,-1.4476,-1.4477,-1.4536,-1.4536,-1.4535,0,0,0,0,0,0,-1.4204,-1.4212,-1.4292,-1.426,-1.4271,-1.4312,-1.433,-1.4337,-1.4351,-1.4393,-1.4401,-1.4372,-1.4434,-1.4442,-1.4467,-1.4468,-1.4477,-1.448,-1.4536,-1.4536,-1.4535,-1.4504,0,0,0,0,0,0,-1.4201,-1.4211,-1.4217,-1.426,-1.4273,-1.4312,-1.433,-1.4338,-1.4355,-1.4359,-1.4401,-1.4408,-1.4434,-1.4463,-1.447,-1.4472,-1.4482,-1.4536,-1.4536,-1.4536,-1.4505,-1.4502,-1.45,0,0,0,0,0,-1.4197,-1.4205,-1.4217,-1.4226,-1.428,-1.4312,-1.4319,-1.4349,-1.4355,-1.4361,-1.4388,-1.4407,-1.4467,-1.4465,-1.4474,-1.4477,-1.4536,-1.4536,-1.4536,-1.4506,-1.4503,-1.45,0,0,0,0,0,0,-1.4162,-1.4212,-1.4225,-1.4248,-1.4275,-1.4319,-1.4327,-1.4345,-1.4371,-1.4373,-1.4409,-1.4418,-1.444,-1.4461,-1.4458,-1.4493,-1.4504,-1.4505,-1.4478,-1.4476,-1.4473,-1.4468,-1.4484,0,0,0,0,0,-1.4156,-1.4178,-1.422,-1.4236,-1.4249,-1.4285,-1.43,-1.4321,-1.4351,-1.4363,-1.4392,-1.4421,-1.4446,-1.4462,-1.4488,-1.4508,-1.4518,-1.4514,-1.4512,-1.451,-1.4511,-1.4523,-1.4522,-1.4535,-1.4535,-1.4535,0,0,-1.4146,-1.4176,-1.4187,-1.423,-1.4254,-1.4275,-1.4295,-1.4317,-1.4333,-1.4366,-1.4392,-1.4414,-1.4449,-1.4472,-1.4483,-1.449,-1.4509,-1.451,-1.4508,-1.451,-1.4523,-1.4521,-1.452,-1.4535,-1.4535,-1.4535,0,0,-1.4138,-1.4163,-1.4179,-1.4202,-1.4237,-1.4261,-1.4265,-1.4306,-1.4322,-1.4348,-1.4373,-1.4393,-1.4436,-1.446,-1.4477,-1.4478,-1.4496,-1.4485,-1.4473,-1.4485,-1.4484,-1.4483,-1.4483,-1.4483,-1.4486,-1.4486,-1.4486,0,-1.4121,-1.4154,-1.4184,-1.4205,-1.4222,-1.4253,-1.4269,-1.429,-1.4332,-1.4344,-1.4351,-1.4405,-1.4431,-1.446,-1.4459,-1.4473,-1.4478,-1.448,-1.4481,-1.4481,-1.4481,-1.4481,-1.4481,-1.4484,-1.4484,-1.4484,-1.4485,0,-1.413,-1.4153,-1.4161,-1.42,-1.4219,-1.4237,-1.4271,-1.4287,-1.4305,-1.4329,-1.4355,-1.4387,-1.4419,-1.4428,-1.4446,-1.4459,-1.4462,-1.4474,-1.4486,-1.4477,-1.4478,-1.4479,-1.4482,-1.4482,-1.4483,-1.4483,0,0,-1.4102,-1.4158,-1.4161,-1.4179,-1.422,-1.4238,-1.4257,-1.4288,-1.4301,-1.4329,-1.4346,-1.4382,-1.4394,-1.4414,-1.4435,-1.4445,-1.4443,-1.4457,-1.4458,-1.4453,-1.4459,-1.4449,-1.4449,-1.4456,-1.4456,-1.4456,-1.4456,0,-1.41,-1.4136,-1.4164,-1.4189,-1.421,-1.4239,-1.4256,-1.4283,-1.4306,-1.4327,-1.4352,-1.4377,-1.439,-1.4403,-1.4414,-1.4441,-1.4445,-1.4441,-1.4472,-1.4473,-1.4462,-1.4449,-1.4439,-1.4437,-1.4457,-1.4457,-1.4457,0,-1.4102,-1.4128,-1.4155,-1.4194,-1.4204,-1.4218,-1.4249,-1.4269,-1.43,-1.4316,-1.4338,-1.436,-1.4382,-1.4392,-1.4423,-1.442,-1.4435,-1.445,-1.4451,-1.4454,-1.4464,-1.4452,-1.4438,-1.4437,-1.4458,-1.4458,-1.4458,0,-1.4078,-1.412,-1.4142,-1.4156,-1.4202,-1.4212,-1.4231,-1.4263,-1.428,-1.4307,-1.4318,-1.4348,-1.4364,-1.4386,-1.4416,-1.442,-1.4444,-1.4457,-1.4458,-1.4457,-1.4462,-1.4461,-1.4449,-1.4471,-1.4471,-1.4471,-1.4471,0,-1.4072,-1.4088,-1.4132,-1.4145,-1.4163,-1.4195,-1.4212,-1.4235,-1.4262,-1.4281,-1.4308,-1.4325,-1.4363,-1.4385,-1.4409,-1.4431,-1.4438,-1.4451,-1.4457,-1.4449,-1.4447,-1.4458,-1.4459,-1.4471,-1.4471,-1.4471,-1.4471,0,-1.4049,-1.4079,-1.4104,-1.4145,-1.4156,-1.4167,-1.4202,-1.4216,-1.424,-1.4263,-1.427,-1.4308,-1.4334,-1.4366,-1.4404,-1.442,-1.444,-1.4449,-1.4429,-1.4432,-1.4432,-1.4431,-1.4426,-1.4427,-1.4449,-1.4449,-1.4449,0,-1.4043,-1.4055,-1.4097,-1.4111,-1.4129,-1.4152,-1.4169,-1.4201,-1.4218,-1.4254,-1.4264,-1.4293,-1.4317,-1.4359,-1.439,-1.4419,-1.4429,-1.4425,-1.4433,-1.4424,-1.4428,-1.4427,-1.4428,-1.4422,-1.4422,-1.4422,-1.4421,0,-1.4029,-1.4043,-1.4066,-1.4095,-1.4114,-1.4138,-1.4164,-1.4173,-1.4211,-1.4229,-1.4256,-1.4275,-1.4313,-1.4341,-1.4373,-1.4394,-1.4414,-1.4419,-1.4421,-1.4411,-1.4399,-1.4405,-1.4422,-1.4419,-1.4419,-1.4419,-1.4419,-1.4419,-1.4014,-1.4026,-1.4057,-1.4082,-1.4104,-1.4127,-1.4142,-1.4168,-1.4191,-1.4223,-1.4241,-1.4268,-1.4299,-1.4345,-1.4365,-1.4387,-1.4394,-1.4397,-1.4398,-1.4398,-1.4395,-1.4396,-1.4393,-1.4393,-1.4394,-1.4394,-1.4394,0,-1.4001,-1.4022,-1.4045,-1.4079,-1.4099,-1.4115,-1.4144,-1.4159,-1.4182,-1.4209,-1.4233,-1.4264,-1.4291,-1.4324,-1.4354,-1.4365,-1.4375,-1.4372,-1.4371,-1.4376,-1.4387,-1.4382,-1.4363,-1.4363,-1.4363,-1.4363,-1.4363,-1.4363,-1.3997,-1.4018,-1.4036,-1.4068,-1.409,-1.4115,-1.413,-1.4152,-1.4173,-1.4207,-1.4229,-1.425,-1.428,-1.4312,-1.4338,-1.4347,-1.4357,-1.4351,-1.4363,-1.4372,-1.4375,-1.4378,-1.4373,-1.4353,-1.4353,-1.435,-1.435,-1.435]},{"header":{"parameterUnit":"m.s-1","parameterCategory":1,"la1":30.2991,"la2":30.254,"lo1":-89.0895,"lo2":-89.0444,"dy":0.0017,"dx":0.0017,"nx":28,"ny":28,"refTime":"2023-10-19T09:00:00:Z","depth":0,"parameterNumber":3,"parameterNumberName":"V-component_of_WINDS"},"data":[0,0,0,0,0,0,0,0,0,0,0,0,0,0,0,0,0,0,0,0,0,0,0,0,0,0,0,0,0,0,0,0,0,0,0,0,0,0,0,0,0,0,0,0,0,0,0,0,0,0,0,0,0,0,0,0,0,0,0.1215,0.1215,0,0.1281,0.1282,0.1283,0.1329,0.133,0.133,0.133,0.1395,0.1397,0.1398,0,0,0,0,0,0,0,0,0,0,0,0,0,0.1127,0.1128,0.1215,0.1215,0.1216,0.1281,0.1282,0.1283,0.1329,0.133,0.133,0.133,0.1395,0.1397,0.1398,0,0,0,0,0,0,0,0,0,0,0,0,0,0.1176,0.1129,0.1214,0.1247,0.1251,0.1281,0.1282,0.1283,0.1329,0.133,0.133,0.1331,0.1394,0.1396,0.1398,0.14,0,0,0.1405,0.1406,0,0,0,0,0,0,0,0,0.1173,0.1179,0.1242,0.1245,0.1249,0.1298,0.1275,0.1322,0.1329,0.1299,0.133,0.1331,0.1362,0.1367,0.1378,0.1403,0.1406,0.1405,0.1406,0.1407,0.1408,0,0,0,0,0,0,0,0.117,0.1177,0.1241,0.1242,0.1247,0.1258,0.1266,0.1284,0.1327,0.1302,0.1305,0.1313,0.1364,0.1376,0.138,0.1407,0.1405,0.1407,0.1408,0.1409,0.1438,0.1438,0,0,0,0,0,0,0.1162,0.1174,0.1239,0.1243,0.1212,0.1259,0.1268,0.1281,0.1327,0.1334,0.1312,0.1315,0.1372,0.1377,0.1382,0.1389,0.1407,0.1409,0.141,0.1439,0.1438,0.1438,0,0,0,0,0,0,0.116,0.1167,0.1236,0.1209,0.1219,0.126,0.1275,0.1282,0.1294,0.1335,0.1342,0.1316,0.1373,0.1379,0.1396,0.1392,0.141,0.1412,0.1439,0.1439,0.1438,0.14,0,0,0,0,0,0,0.1157,0.1166,0.1167,0.1209,0.122,0.1249,0.1275,0.1283,0.1298,0.1302,0.134,0.1347,0.1374,0.1393,0.1398,0.1395,0.1414,0.144,0.1439,0.1438,0.1402,0.1398,0.1395,0,0,0,0,0,0.1154,0.1153,0.1167,0.1175,0.1223,0.1248,0.1255,0.1286,0.1297,0.1299,0.1325,0.1346,0.1391,0.1394,0.14,0.1398,0.144,0.1439,0.1438,0.1403,0.1399,0.1395,0,0,0,0,0,0,0.1108,0.1159,0.1175,0.1188,0.1214,0.1256,0.1259,0.128,0.1302,0.1305,0.1342,0.135,0.1363,0.1382,0.1384,0.1402,0.1418,0.1419,0.139,0.1386,0.1382,0.1377,0.1415,0,0,0,0,0,0.1099,0.1117,0.116,0.1167,0.1179,0.1217,0.1229,0.1251,0.1279,0.129,0.1317,0.1343,0.1363,0.1375,0.1396,0.1405,0.1415,0.1406,0.1403,0.14,0.14,0.1407,0.1404,0.1434,0.1435,0.1435,0,0,0.1082,0.1112,0.112,0.1159,0.1181,0.1198,0.1226,0.1242,0.1255,0.1292,0.131,0.1331,0.1362,0.1375,0.1382,0.1391,0.1393,0.1398,0.1396,0.1397,0.1406,0.1403,0.14,0.1434,0.1434,0.1434,0,0,0.1059,0.1083,0.1092,0.1115,0.1149,0.1175,0.1177,0.1217,0.1233,0.1252,0.1281,0.1296,0.1329,0.1351,0.1366,0.1353,0.1374,0.1359,0.1341,0.1348,0.1345,0.1343,0.134,0.1338,0.1358,0.1358,0.1358,0,0.1032,0.106,0.1094,0.111,0.1126,0.1162,0.1172,0.1192,0.1231,0.1241,0.1251,0.1296,0.1319,0.1338,0.1335,0.1346,0.135,0.1355,0.1343,0.1341,0.134,0.1337,0.1335,0.1356,0.1357,0.1357,0.1357,0,0.1026,0.1045,0.1048,0.1087,0.1104,0.1116,0.1152,0.1165,0.1186,0.121,0.123,0.1259,0.1287,0.1293,0.1313,0.1316,0.1321,0.1336,0.1353,0.1335,0.1333,0.1332,0.1354,0.1354,0.1355,0.1355,0,0,0.0975,0.1034,0.1035,0.1054,0.1095,0.111,0.1124,0.1153,0.1164,0.119,0.1203,0.1231,0.1247,0.1264,0.1287,0.1293,0.1282,0.1308,0.1309,0.1303,0.1288,0.1277,0.1275,0.1296,0.1296,0.1296,0.1286,0,0.0959,0.0988,0.1021,0.1038,0.1056,0.1092,0.1104,0.1131,0.1154,0.1173,0.1198,0.1218,0.1236,0.1247,0.1255,0.1282,0.128,0.1283,0.1309,0.1309,0.13,0.1274,0.1261,0.1251,0.1285,0.1285,0.1285,0,0.0944,0.097,0.099,0.1032,0.104,0.1051,0.1081,0.1098,0.113,0.1146,0.1166,0.1191,0.1208,0.1223,0.1247,0.1249,0.1261,0.1276,0.1277,0.128,0.1296,0.1277,0.1248,0.1246,0.1284,0.1284,0.1284,0,0.0906,0.0946,0.0964,0.0978,0.1027,0.1034,0.1054,0.1086,0.1102,0.1128,0.1139,0.1165,0.118,0.12,0.1231,0.1239,0.1253,0.127,0.1267,0.1266,0.1268,0.1268,0.1241,0.1275,0.1275,0.1275,0.1275,0,0.0885,0.0896,0.0948,0.0958,0.0972,0.1009,0.1021,0.1045,0.1073,0.1089,0.1121,0.1135,0.1175,0.1194,0.1218,0.1235,0.1241,0.1255,0.1262,0.1253,0.1251,0.1262,0.1264,0.1275,0.1275,0.1275,0.1275,0,0.0845,0.088,0.0902,0.0947,0.0959,0.0967,0.1005,0.1017,0.1042,0.1062,0.1069,0.1109,0.1133,0.1166,0.12,0.1217,0.123,0.124,0.122,0.1224,0.122,0.122,0.12,0.1199,0.1232,0.1232,0.1232,0,0.083,0.084,0.0886,0.09,0.092,0.0941,0.0958,0.0995,0.1011,0.1048,0.1056,0.1083,0.1106,0.1143,0.1174,0.12,0.1212,0.1203,0.1216,0.1207,0.1213,0.1212,0.1214,0.1199,0.1199,0.1198,0.1198,0,0.08,0.0817,0.084,0.0871,0.089,0.0915,0.0942,0.0951,0.0993,0.101,0.1036,0.1054,0.109,0.1116,0.1147,0.1167,0.119,0.1194,0.1195,0.1186,0.1175,0.1182,0.1212,0.1194,0.1195,0.1195,0.1195,0.1195,0.0772,0.0783,0.0818,0.0844,0.0868,0.0893,0.0907,0.0935,0.0957,0.099,0.101,0.1035,0.1068,0.1112,0.1131,0.1151,0.116,0.1161,0.1162,0.1161,0.1159,0.1171,0.1157,0.1157,0.1157,0.1157,0.1157,0,0.0744,0.0769,0.0792,0.083,0.085,0.0871,0.0901,0.0917,0.0939,0.0968,0.0991,0.1021,0.1047,0.1081,0.111,0.1119,0.113,0.1125,0.1125,0.113,0.1149,0.1145,0.1116,0.1116,0.1116,0.1116,0.1116,0.1116,0.0732,0.0752,0.0774,0.0806,0.0831,0.0857,0.0873,0.0896,0.0919,0.0952,0.0974,0.0997,0.1028,0.1059,0.1084,0.1094,0.1103,0.1095,0.1107,0.1124,0.1128,0.1132,0.1129,0.1096,0.1096,0.1087,0.1087,0.1087]}]]